Regional Weather Roundup
Issued by NWS

Home | Current Version | Previous Version | Text Only | Print | Product List | Glossary On
Versions: 1 2 3 4 5 6 7 8 9 10 11 12 13 14 15 16 17 18 19 20 21 22 23 24 25 26 27 28 29 30 31 32 33 34 35 36 37 38 39 40 41 42 43 44 45 46 47 48 49 50
000
ASUS46 KLOX 010812
RWRCA

SOUTHERN CALIFORNIA WEATHER ROUNDUP
NATIONAL WEATHER SERVICE OXNARD CALIFORNIA
100 AM PDT WED OCT 01 2014

NOTE: "FAIR" INDICATES FEW OR NO CLOUDS BELOW 12,000 FEET WITH NO
SIGNIFICANT WEATHER AND/OR OBSTRUCTIONS TO VISIBILITY.

  -  STATIONS PRECEEDED BY AN ASTERISK (*) ARE NOT NWS OR FAA
     STATIONS AND ARE NOT SUBJECT TO NWS AND FAA QUALITY CONTROL.

CAZ041-042-087-010900-
LA AND ORANGE COUNTY COASTAL AREAS


CITY           SKY/WX    TMP DP  RH WIND       PRES   REMARKS
L.A. DOWNTOWN  CLEAR     66  61  84 CALM      29.76F
L.A. AIRPORT   CLEAR     66  62  87 SE3       29.77S
LONG BEACH     CLEAR     66  63  90 CALM      29.77S

CITY           SKY/WX    TMP DP  RH WIND       PRES   REMARKS
AVALON           N/A     61 N/A N/A S3          N/A
FULLERTON      MOCLDY    69  63  81 SE6       29.77S
HAWTHORNE      CLEAR     68  61  78 CALM      29.77S
*LEO CARRILLO    N/A     60  47  62 N7          N/A
*LOS ALAMITOS  FAIR      65  64  95 E3        29.77S
*REDONDO BEACH   N/A     65  58  79 CALM      29.76S
SANTA ANA      CLEAR     70  62  76 CALM      29.77F
STA MONICA APT PTCLDY    65  61  87 CALM      29.77S
*UCLA            N/A     63  59  88 N2        29.75S

$$

CAZ547-548-048-010900-
LA COUNTY VALLEYS AND INLAND EMPIRE


CITY           SKY/WX    TMP DP  RH WIND       PRES   REMARKS
BURBANK        CLEAR     67  56  67 E6        29.77F
VAN NUYS       CLEAR     68  56  65 E5        29.77F

CITY           SKY/WX    TMP DP  RH WIND       PRES   REMARKS
CORONA AIRPORT SUNNY     59  55  86 CALM      29.79S
*CHATSWORTH      N/A     64  46  51 CALM      29.74S
CHINO          CLEAR     64  58  80 CALM      29.79F
*CLAREMONT       N/A     59  40  50 CALM        N/A
MARCH AFB      CLEAR     60  48  66 CALM      29.81S
*NORTHRIDGE      N/A     64  52  63 CALM        N/A
ONTARIO        CLEAR     67  55  65 W3        29.79S
*PASADENA        N/A     66  57  72 E2          N/A
RIVERSIDE      CLEAR     68  55  63 CALM      29.79S
SAN BERNARDINO NOT AVBL
*SAN GABRIEL     N/A     66  55  69 CALM      29.74R
*SAN RAFAEL HI   N/A     63  51  66 SW9         N/A
*SAUGUS          N/A     64  40  42 NE2         N/A
*WHITEMAN AP   NOT AVBL
*WHITTIER HILL   N/A     62  62  98 SE5         N/A
*WOODLAND HILL   N/A     61  50  67 SE1         N/A

$$

CAZ054-055-010900-
LA AND SAN BERNARDINO COUNTY MOUNTAINS


CITY           SKY/WX    TMP DP  RH WIND       PRES   REMARKS
*BIG BEAR AIRP SUNNY     37  28  70 CALM      30.04S
*BIG PINES       N/A     51  23  33 CALM        N/A
MT WILSON NWS    N/A     55  34  44 MISG        N/A
SANDBERG       CLEAR     60  46  59 N12G20    29.95S

$$

CAZ028-029-059-060-099-010900-
ANTELOPE VALLEY AND SURROUNDING AREAS


CITY           SKY/WX    TMP DP  RH WIND       PRES   REMARKS
LANCASTER      CLEAR     66  46  48 W20       29.82S
PALMDALE       CLEAR     64  36  35 W5        29.84R
*POPPY PARK      N/A     65  44  46 W21         N/A

CITY           SKY/WX    TMP DP  RH WIND       PRES   REMARKS
29 PALMS       CLEAR     71  39  31 W10       29.84R
BARSTOW/DAGGET CLEAR     71  39  31 NW6       29.78S
BISHOP         MOCLDY    63  36  36 N10       29.94R
CHINA LAKE     CLEAR     63  35  35 NW5       29.76R
EDWARDS AFB    CLEAR     65  42  44 SW12      29.79S
MOJAVE         FAIR      66  43  42 W17G23    29.80F
NEEDLES        CLEAR     75  39  27 CALM      29.71S
VICTORVILLE    CLEAR     63  37  39 SW9       29.84S

$$

CAZ039-040-010900-
VENTURA AND SANTA BARBARA COUNTY COAST


CITY           SKY/WX    TMP DP  RH WIND       PRES   REMARKS
CAMARILLO      CLEAR     61  56  83 CALM      29.75F
NWS OXNARD       N/A     60  55  83 CALM      29.75S
OXNARD AIRPORT PTCLDY    61  57  87 NE3       29.75F
*POINT MUGU    MOCLDY    64  59  83 CALM      29.75F HAZE
SBA APT/GOLETA CLEAR     61  57  87 CALM      29.74S
*VENTURA         N/A     61  55  81 CALM      29.78S

$$

CAZ044-045-010900-
VENTURA COUNTY VALLEYS


CITY           SKY/WX    TMP DP  RH WIND       PRES   REMARKS
*SIMI VALLEY     N/A     63  46  52 NE2       29.71S
*OJAI            N/A     54  46  74 CALM      29.70S
*FILLMORE        N/A     57  50  77 CALM      29.66S

$$

CAZ053-010900-
VENTURA COUNTY MOUNTAINS


CITY           SKY/WX    TMP DP  RH WIND       PRES   REMARKS
*LOCKWOOD VLY    N/A     41  25  52 MISG        N/A
*ROSE VALLEY     N/A     45  37  76 MISG        N/A

$$

CAZ034-035-036-010900-
CENTRAL COAST AND SANTA YNEZ VALLEY


CITY           SKY/WX    TMP DP  RH WIND       PRES   REMARKS
SAN LUIS OBISP CLEAR     55  53  93 SE3       29.80F
SANTA MARIA    CLEAR     56  51  84 S5        29.80F

CITY           SKY/WX    TMP DP  RH WIND       PRES   REMARKS
*CAL POLY SLO    N/A     55  54  94 CALM        N/A
*LOMPOC        CLOUDY    57  54  88 E3        29.80F
*PISMO BEACH     N/A     56  54  90 NE2       29.80F
*SANTA YNEZ    CLOUDY    55  54  94 CALM      29.80F FOG

$$

CAZ037-038-051-010900-
SAN LUIS OBISPO COUNTY INTERIOR AND CUYAMA VALLEY


CITY           SKY/WX    TMP DP  RH WIND       PRES   REMARKS
*CUYAMA          N/A     61  48  62 SE3       29.80S
PASO ROBLES    CLEAR     60  50  69 CALM      29.84S

$$

CAZ032-033-061-010900-
SOUTHERN DESERTS


CITY           SKY/WX    TMP DP  RH WIND       PRES   REMARKS
BLYTHE         CLEAR     75  42  30 CALM      29.69F
IMPERIAL       CLEAR     75  47  36 SW3       29.66F
PALM SPRINGS   CLEAR     78  46  32 CALM      29.71F
THERMAL        CLEAR     64  49  57 CALM      29.65F

$$

ELSEWHERE ACROSS THE WESTERN UNITED STATES AND MEXICO


CITY           SKY/WX    TMP DP  RH WIND       PRES   REMARKS
DENVER, CO     MOCLDY    51  36  56 SW6       29.88S
GRAND CANYON,  PTCLDY    37  35  92 CALM      30.02F
HONOLULU, HI   PTCLDY    79  72  78 N5        29.96R
KAHULUI, MAUI  CLEAR     79  70  73 NE8       29.97R
LAKE TAHOE, CA CLEAR     50  30  46 VRB7      30.09S
LAS VEGAS, NV  CLEAR     71  37  28 S8        29.73R
MAMMOTH LAKES, CLOUDY    50  36  57 W10       30.11S
MEXICO CITY, M PTCLDY    61  52  72 W7        30.21F
PHOENIX, AZ    CLEAR     73  52  47 E7        29.75R
PORTLAND, OR   CLEAR     51  50  96 CALM      30.20S
RENO, NV       CLEAR     52  34  50 S3        30.09S
SALT LAKE CITY LGT RAIN  51  47  86 W7        29.97S
SAN DIEGO, CA  MOCLDY    69  65  86 S6        29.79F
SAN FRANCISCO, CLEAR     63  57  81 W6        29.85S
SAN JOSE, CA   CLEAR     62  56  80 CALM      29.85S
SEATTLE, WA    MOCLDY    58  49  72 E5        30.19R
TIJUANA, MEX   CLEAR     64  59  82 CALM      29.81F

$$

STATION/POSITION TIME  TEMP    WIND        PRES    VSBY  WAVE
                       AIR SEA DIR/SP/G                  HT/PER
                 (UTC) (F)     (DEG/KT/KT) (MB)    (MI)  (FT/S)
POINT ARGUELLO B NOT AVBL
WEST SANTA BARBA 0800   60 62  320/ 19/ 23 1006.9F         7/ 8
POINT CONCEPTION NOT AVBL
EAST SANTA BARBA 0700   65 66  290/  8/  8 1007.4F
SANTA MONICA BAY 0700   67 71  290/  2/  4 1007.5S         5/ 6


USA.gov is the U.S. government's official web portal to all federal, state and local government web resources and services.